Location: Newark
(42.8481°N, 0.4872°E)
Time: 22:48:40
(UTC+00:00)

Vanguard 3 - Pass Details

Date: 03 November 2020
Orbit: 508 x 3262 km, 33.3° (Epoch: 28 November)

Event Time Altitude Azimuth Distance (km) Brightness Sun altitude
Rises 01:42:16 0° 198° (SSW) 4,872 - -52.2°
Reaches altitude 10° 01:45:53 10° 185° (S) 4,284 - -51.6°
Exits shadow 01:54:02 25° 143° (SE) 3,949 10.5 -50.4°
Maximum altitude 01:55:21 25° 135° (SE) 4,031 10.6 -50.2°
Drops below altitude 10° 02:08:10 10° 89° (E) 5,967 12.0 -48.2°
Sets 02:14:27 0° 80° (E) 7,181 12.6 -47.2°
